ALE-2 (44824 NORAD) Tracking and Keplerian Element Data

This shows tracking and keplerian element data for the satellite.

Feedback or suggestion? Click here.




ElementValue
Catalog44824
NameALE-2
Epoch Orbit660
Epoch Day17.88078799
Epoch Year2020
RAAN246.0845
Inclination97.0042
Eccentricity0.0015418
Argument of Perigee137.2332
Mean Anonmoly223.013
Mean Motion15.53839299
Decay Rate2.384E-05
L11 44824U 19084A 20017.88078799 .00002384 00000-0 38373-4 0 9995
L22 44824 97.0042 246.0845 0015418 137.2332 223.0130 15.53839299 6602

Live tracking and technical data element details for ALE-2 (NORAD 44824). ALE-2 can be tracked NOW for your location showing map with azimuth and elevation plus other details from your city location.

Track the satellite on the map from your city or location and see movement details for azimuth, elevation, latitude, longitude, range, height, and movement on the map or in text.







IsCatalogInMostPopularTable: catalog: 44824, numindb: 10
Update: records affected: 1



GetName: 44824 ALE-2

Hit Count: updated at: Mon, 20 Jan 2020 03:28:18 GMT